CW3702 Weather Reports


time (UTC)temp
C
wind
direction
speed
KPH
gust
KPH
rain 1hr
cm
rain 24hr
cm
rain mn
cm
humidity
%
barometer
mb
20260507180519 12 256 8.0 22.5 0.00 0.05 0.00 24 1018.4
20260507180031 12 245 11.3 22.5 0.00 0.05 0.00 25 1018.5
20260507175515 12 230 6.4 22.5 0.00 0.05 0.00 25 1018.5
20260507175016 13 270 14.5 22.5 0.00 0.05 0.00 25 1018.6
20260507174540 13 239 4.8 19.3 0.00 0.05 0.00 27 1018.7
20260507174014 13 290 8.0 19.3 0.00 0.05 0.00 26 1018.7
20260507173514 12 240 11.3 27.4 0.00 0.05 0.00 29 1018.7
20260507173036 13 254 16.1 27.4 0.00 0.05 0.00 27 1018.7
20260507172513 12 297 14.5 22.5 0.00 0.05 0.00 27 1018.9
20260507172015 12 269 16.1 20.9 0.00 0.05 0.00 27 1019.0
20260507171535 12 298 11.3 20.9 0.00 0.05 0.00 28 1019.1
20260507171012 12 256 9.7 17.7 0.00 0.05 0.00 28 1018.9
20260507170512 12 242 9.7 19.3 0.00 0.05 0.00 27 1019.1
20260507170041 12 303 9.7 20.9 0.00 0.05 0.00 27 1019.1
20260507165514 12 301 11.3 20.9 0.00 0.08 0.00 27 1019.1
20260507165015 12 271 9.7 19.3 0.00 0.08 0.00 27 1019.2
20260507164533 12 299 12.9 22.5 0.00 0.08 0.00 27 1019.2
20260507164018 12 289 14.5 22.5 0.00 0.08 0.00 26 1019.2
20260507163515 11 244 12.9 19.3 0.00 0.08 0.00 24 1019.3
20260507163029 11 252 11.3 20.9 0.00 0.08 0.00 29 1019.4
20260507162512 11 235 12.9 24.1 0.00 0.08 0.00 29 1019.4
20260507162014 11 252 16.1 24.1 0.00 0.08 0.00 30 1019.4
20260507161532 11 278 12.9 20.9 0.00 0.08 0.00 32 1019.5
20260507161013 11 252 12.9 20.9 0.00 0.08 0.00 34 1019.4
20260507160512 10 264 11.3 22.5 0.00 0.08 0.00 35 1019.4
20260507160033 10 238 12.9 22.5 0.00 0.08 0.00 37 1019.4
20260507155513 10 280 16.1 22.5 0.00 0.08 0.00 40 1019.4
20260507155013 10 242 16.1 24.1 0.00 0.08 0.00 41 1019.4
20260507154533 10 271 16.1 24.1 0.00 0.08 0.00 42 1019.4
20260507154014 9 255 16.1 24.1 0.00 0.08 0.00 41 1019.5
20260507153512 9 254 19.3 24.1 0.00 0.08 0.00 41 1019.4
20260507153031 9 247 19.3 22.5 0.00 0.08 0.00 42 1019.3
20260507152518 9 245 16.1 22.5 0.00 0.08 0.00 42 1019.4
20260507152015 8 245 17.7 22.5 0.00 0.08 0.00 43 1019.4
20260507151531 8 252 16.1 25.7 0.00 0.08 0.00 43 1019.4
20260507151012 8 245 14.5 25.7 0.00 0.08 0.00 44 1019.3
20260507150514 8 261 17.7 25.7 0.00 0.08 0.00 42 1019.4
20260507150033 8 254 17.7 24.1 0.00 0.08 0.00 41 1019.3
20260507145515 8 240 17.7 25.7 0.00 0.08 0.00 42 1019.2
20260507145012 7 241 17.7 25.7 0.00 0.08 0.00 44 1019.2
20260507144530 7 254 17.7 25.7 0.00 0.08 0.00 45 1019.3
20260507144014 7 254 19.3 25.7 0.00 0.08 0.00 45 1019.4
20260507143514 7 254 19.3 25.7 0.00 0.08 0.00 45 1019.3
20260507143034 6 248 17.7 25.7 0.00 0.08 0.00 46 1019.3
20260507142512 6 248 16.1 20.9 0.00 0.08 0.00 47 1019.2
20260507142014 6 263 14.5 20.9 0.00 0.08 0.00 48 1019.5
20260507141531 6 254 14.5 20.9 0.00 0.08 0.00 46 1019.4
20260507141012 6 261 14.5 19.3 0.00 0.08 0.00 45 1019.4
20260507140513 6 259 8.0 16.1 0.00 0.08 0.00 45 1019.3
20260507140032 6 246 9.7 16.1 0.00 0.08 0.00 41 1019.4
20260507135517 6 0 0.0 9.7 0.00 0.08 0.00 44 1019.2
20260507135015 6 169 3.2 9.7 0.00 0.08 0.00 44 1019.3
20260507134531 6 0 0.0 3.2 0.00 0.08 0.00 45 1019.2
20260507134015 6 0 0.0 3.2 0.00 0.08 0.00 46 1019.2
20260507133513 5 0 0.0 3.2 0.00 0.08 0.00 48 1019.0
20260507133030 5 0 0.0 3.2 0.00 0.08 0.00 48 1019.0
20260507132515 4 0 0.0 6.4 0.00 0.08 0.00 50 1019.0
20260507132015 3 0 0.0 6.4 0.00 0.08 0.00 51 1019.0
20260507131536 3 138 3.2 6.4 0.00 0.08 0.00 52 1018.9
20260507131016 3 133 1.6 4.8 0.00 0.08 0.00 53 1019.1
20260507130515 2 144 1.6 3.2 0.00 0.08 0.00 56 1018.9
20260507130032 2 0 0.0 6.4 0.00 0.08 0.00 57 1018.8
20260507125512 1 143 0.0 9.7 0.00 0.08 0.00 58 1018.7
20260507125011 1 0 3.2 9.7 0.00 0.08 0.00 58 1018.7
20260507124528 1 171 6.4 9.7 0.00 0.08 0.00 58 1018.7
20260507124016 0 155 4.8 11.3 0.00 0.08 0.00 58 1018.6
20260507123514 0 147 4.8 11.3 0.00 0.08 0.00 58 1018.6
20260507123030 0 142 6.4 11.3 0.00 0.08 0.00 59 1018.5
20260507122513 0 142 6.4 11.3 0.00 0.08 0.00 60 1018.3
20260507122014 0 130 6.4 11.3 0.00 0.08 0.00 61 1018.2
20260507121532 -1 117 4.8 12.9 0.00 0.08 0.00 60 1018.4
20260507121012 -1 151 8.0 12.9 0.00 0.08 0.00 60 1018.3
20260507120514 -1 130 6.4 11.3 0.00 0.08 0.00 60 1018.2
20260507120039 -1 160 1.6 8.0 0.00 0.08 0.00 60 1018.3
20260507115514 -1 160 1.6 6.4 0.00 0.08 0.00 60 1018.4
20260507115015 -1 118 3.2 6.4 0.00 0.08 0.00 60 1018.4
20260507114532 -1 173 0.0 4.8 0.00 0.08 0.00 61 1018.4
20260507114013 -1 173 0.0 6.4 0.00 0.08 0.00 61 1018.4
20260507113513 -1 173 1.6 6.4 0.00 0.08 0.00 62 1018.3
20260507113030 -1 0 0.0 6.4 0.00 0.08 0.00 62 1018.4
20260507112514 -1 169 1.6 9.7 0.00 0.08 0.00 62 1018.3
20260507112014 -1 169 4.8 9.7 0.00 0.08 0.00 62 1018.4
20260507111531 -1 170 6.4 9.7 0.00 0.08 0.00 62 1018.5
20260507111014 -1 179 6.4 9.7 0.00 0.08 0.00 63 1018.3
20260507110515 -1 179 4.8 9.7 0.00 0.08 0.00 63 1018.3
20260507110030 -1 163 6.4 11.3 0.00 0.08 0.00 63 1018.2
20260507105512 -1 146 4.8 11.3 0.00 0.08 0.00 64 1018.3
20260507105012 -1 163 4.8 9.7 0.00 0.08 0.00 64 1018.2
20260507104532 -1 238 3.2 6.4 0.00 0.08 0.00 64 1018.3
20260507104015 -1 238 3.2 6.4 0.00 0.08 0.00 64 1018.4
20260507103517 0 238 1.6 9.7 0.00 0.08 0.00 63 1018.4
20260507103033 0 238 1.6 14.5 0.00 0.08 0.00 63 1018.4
20260507102515 0 233 6.4 16.1 0.00 0.08 0.00 63 1018.4
20260507102014 0 246 8.0 16.1 0.00 0.08 0.00 64 1018.5
20260507101531 0 244 8.0 16.1 0.00 0.08 0.00 65 1018.6
20260507101011 0 246 6.4 14.5 0.00 0.08 0.00 66 1018.6
20260507100512 0 246 4.8 14.5 0.00 0.08 0.00 67 1018.6
20260507100035 0 248 9.7 14.5 0.00 0.08 0.00 67 1018.6
20260507095517 0 255 6.4 12.9 0.00 0.08 0.00 68 1018.5
20260507095015 0 255 8.0 12.9 0.00 0.08 0.00 69 1018.5
20260507094537 0 279 6.4 16.1 0.00 0.08 0.00 69 1018.5
20260507094012 0 279 6.4 16.1 0.00 0.08 0.00 69 1018.5
20260507093512 0 263 11.3 16.1 0.00 0.08 0.00 69 1018.4
20260507093030 0 251 9.7 16.1 0.00 0.08 0.00 71 1018.4
20260507092513 0 255 12.9 17.7 0.00 0.08 0.00 71 1018.5
20260507092014 0 251 11.3 17.7 0.00 0.08 0.00 72 1018.5
20260507091531 0 267 12.9 17.7 0.00 0.08 0.00 72 1018.6
20260507091014 0 260 11.3 16.1 0.00 0.08 0.00 75 1018.5
20260507090515 0 267 11.3 16.1 0.00 0.08 0.00 76 1018.7
20260507090036 0 258 11.3 16.1 0.00 0.08 0.00 79 1018.8
20260507085512 -1 250 9.7 12.9 0.00 0.08 0.00 83 1018.8
20260507085012 -2 248 0.0 8.0 0.00 0.08 0.00 84 1018.8
20260507084528 -2 0 1.6 11.3 0.00 0.08 0.00 84 1018.8
20260507084014 -2 142 6.4 11.3 0.00 0.08 0.00 84 1018.8
20260507083514 -2 119 4.8 8.0 0.00 0.08 0.00 84 1018.8
20260507083032 -2 114 3.2 6.4 0.00 0.08 0.00 85 1018.7
20260507082513 -2 0 3.2 8.0 0.00 0.08 0.00 86 1019.0
20260507082013 -2 132 4.8 8.0 0.00 0.08 0.00 86 1018.8
20260507081541 -2 128 3.2 6.4 0.00 0.08 0.00 86 1019.1
20260507081012 -2 128 3.2 6.4 0.00 0.08 0.00 87 1018.9
20260507080512 -2 129 3.2 8.0 0.00 0.08 0.00 87 1018.9
20260507080031 -2 133 3.2 11.3 0.00 0.08 0.00 88 1018.9
20260507075516 -2 148 4.8 11.3 0.00 0.08 0.00 88 1019.2
20260507075011 -2 150 6.4 11.3 0.00 0.08 0.00 89 1019.2
20260507074546 -2 146 6.4 11.3 0.00 0.08 0.00 89 1019.0
20260507074011 -2 144 3.2 9.7 0.00 0.08 0.00 90 1019.2
20260507073514 -2 163 3.2 8.0 0.00 0.08 0.00 90 1019.1
20260507073030 -2 173 3.2 8.0 0.00 0.08 0.00 90 1019.2
20260507072516 -2 173 3.2 11.3 0.00 0.08 0.00 90 1019.3
20260507072010 -2 182 4.8 11.3 0.00 0.08 0.00 91 1019.4
20260507071530 -2 179 4.8 11.3 0.00 0.08 0.00 91 1019.3
20260507071013 -2 190 6.4 12.9 0.00 0.08 0.00 91 1019.3
20260507070512 -2 189 8.0 12.9 0.00 0.08 0.00 91 1019.4
20260507070032 -2 164 6.4 11.3 0.00 0.08 0.00 92 1019.4
20260507065512 -2 181 6.4 11.3 0.00 0.08 0.00 92 1019.3
20260507065013 -2 182 4.8 12.9 0.00 0.08 0.00 92 1019.3
20260507064530 -2 182 8.0 12.9 0.00 0.08 0.00 92 1019.4
20260507064013 -2 192 3.2 11.3 0.00 0.08 0.00 92 1019.6
20260507063514 -2 176 6.4 12.9 0.00 0.08 0.00 93 1019.6
20260507063032 -2 176 8.0 12.9 0.00 0.08 0.00 93 1019.4
20260507062514 -2 176 8.0 12.9 0.00 0.08 0.00 93 1019.5
20260507062012 -2 180 4.8 9.7 0.00 0.08 0.00 92 1019.6
20260507061533 -2 178 3.2 9.7 0.00 0.08 0.00 93 1019.6
20260507061014 -2 171 4.8 9.7 0.00 0.08 0.00 93 1019.5
20260507060514 -2 177 3.2 8.0 0.00 0.08 0.00 92 1019.4
20260507060030 -2 189 1.6 11.3 0.00 0.08 0.00 92 1019.4
20260507055514 -2 0 4.8 11.3 0.00 0.08 0.08 93 1019.4
20260507055016 -2 172 3.2 9.7 0.00 0.08 0.08 92 1019.4
20260507054532 -2 192 3.2 6.4 0.00 0.08 0.08 92 1019.4
20260507054014 -2 196 3.2 8.0 0.00 0.08 0.08 92 1019.3
20260507053513 -2 200 3.2 8.0 0.00 0.08 0.08 92 1019.2
20260507053030 -2 204 3.2 8.0 0.00 0.08 0.08 92 1019.4
20260507052512 -2 188 3.2 9.7 0.00 0.08 0.08 92 1019.3
20260507052011 -2 236 4.8 11.3 0.00 0.08 0.08 92 1019.2
20260507051530 -2 200 4.8 12.9 0.00 0.08 0.08 92 1019.2
20260507051017 -2 226 6.4 14.5 0.00 0.08 0.08 92 1019.2
20260507050515 -2 178 3.2 14.5 0.00 0.08 0.08 92 1019.2
20260507050032 -2 139 6.4 11.3 0.00 0.08 0.08 92 1019.3
20260507045514 -2 194 4.8 12.9 0.00 0.08 0.08 92 1019.2
20260507045014 -2 194 4.8 12.9 0.00 0.08 0.08 91 1019.2
20260507044529 -2 170 6.4 12.9 0.00 0.08 0.08 91 1019.2
20260507044012 -2 172 4.8 14.5 0.00 0.08 0.08 91 1019.2
20260507043513 -2 173 8.0 16.1 0.00 0.08 0.08 91 1019.1
20260507043032 -2 192 6.4 16.1 0.00 0.08 0.08 91 1019.2
20260507042515 -2 160 4.8 16.1 0.00 0.08 0.08 91 1019.1
20260507042014 -2 186 8.0 17.7 0.00 0.08 0.08 91 1019.1
20260507041530 -2 215 8.0 17.7 0.00 0.08 0.08 91 1019.1
20260507041013 -2 185 8.0 16.1 0.00 0.08 0.08 91 1019.2
20260507040513 -2 225 1.6 17.7 0.00 0.08 0.08 90 1019.2
20260507040029 -2 184 6.4 17.7 0.00 0.08 0.08 91 1019.1
20260507035512 -2 171 8.0 16.1 0.00 0.08 0.08 90 1019.1
20260507035014 -2 178 4.8 14.5 0.00 0.08 0.08 90 1019.2
20260507034530 -2 176 3.2 11.3 0.00 0.08 0.08 90 1019.2
20260507034012 -2 178 4.8 9.7 0.00 0.08 0.08 90 1019.2
20260507033511 -2 180 4.8 16.1 0.00 0.08 0.08 90 1019.2
20260507033033 -2 202 4.8 16.1 0.00 0.08 0.08 90 1019.1
20260507032511 -2 183 6.4 19.3 0.00 0.08 0.08 90 1019.1
20260507032018 -2 223 6.4 19.3 0.00 0.08 0.08 90 1019.0
20260507031532 -2 219 4.8 16.1 0.00 0.08 0.08 90 1018.8
20260507031015 -2 227 4.8 14.5 0.00 0.08 0.08 90 1018.9
20260507030513 -2 192 4.8 14.5 0.00 0.08 0.08 90 1018.7
20260507030030 -2 220 4.8 9.7 0.00 0.08 0.08 90 1018.7
20260507025511 -2 209 4.8 11.3 0.00 0.08 0.08 90 1018.6
20260507025010 -2 166 4.8 14.5 0.00 0.08 0.08 90 1018.6
20260507024533 -1 189 3.2 14.5 0.00 0.08 0.08 90 1018.5
20260507024012 -1 219 4.8 14.5 0.00 0.08 0.08 90 1018.6
20260507023511 -1 174 4.8 14.5 0.00 0.08 0.08 90 1018.5
20260507023032 -1 180 3.2 8.0 0.00 0.08 0.08 90 1018.5
20260507022511 -1 207 3.2 12.9 0.00 0.08 0.08 90 1018.5
20260507022012 -1 173 4.8 17.7 0.00 0.08 0.08 90 1018.5
20260507021535 -1 168 8.0 19.3 0.00 0.08 0.08 90 1018.5
20260507021011 0 177 11.3 19.3 0.00 0.08 0.08 91 1018.5
20260507020516 0 184 9.7 16.1 0.00 0.08 0.08 91 1018.3
20260507020031 0 166 8.0 17.7 0.00 0.08 0.08 92 1018.3
20260507015510 0 159 9.7 17.7 0.00 0.08 0.08 92 1018.3
20260507015010 0 178 11.3 17.7 0.00 0.08 0.08 92 1018.2
20260507014543 0 194 9.7 17.7 0.00 0.08 0.08 91 1018.3
20260507014012 0 161 9.7 22.5 0.00 0.08 0.08 91 1018.2
20260507013513 0 167 11.3 22.5 0.00 0.08 0.08 91 1018.3
20260507013028 0 180 12.9 22.5 0.00 0.08 0.08 91 1018.2
20260507012513 0 175 11.3 20.9 0.00 0.08 0.08 91 1018.2
20260507012017 0 161 9.7 24.1 0.00 0.08 0.08 91 1018.4
20260507011533 0 198 14.5 24.1 0.00 0.08 0.08 90 1018.2
20260507011013 0 174 12.9 19.3 0.00 0.08 0.08 90 1018.2
20260507010514 1 171 9.7 19.3 0.00 0.08 0.08 90 1018.2
20260507010034 1 155 9.7 17.7 0.00 0.08 0.08 90 1018.2
20260507005512 1 175 9.7 19.3 0.00 0.08 0.08 90 1018.1
20260507005017 1 209 11.3 19.3 0.00 0.08 0.08 90 1018.2
20260507004530 1 149 8.0 16.1 0.00 0.08 0.08 90 1018.2
20260507004015 1 212 6.4 17.7 0.00 0.08 0.08 90 1018.0
20260507003512 1 193 9.7 17.7 0.00 0.08 0.08 91 1018.0
20260507003033 2 200 6.4 19.3 0.00 0.08 0.08 91 1018.0
20260507002513 1 181 9.7 19.3 0.00 0.08 0.08 92 1018.0
20260507002013 2 169 8.0 17.7 0.00 0.08 0.08 92 1018.0
20260507001529 2 219 8.0 16.1 0.00 0.08 0.08 91 1018.1
20260507001017 1 171 9.7 19.3 0.00 0.08 0.08 91 1018.2
20260507000512 1 182 9.7 19.3 0.00 0.08 0.08 91 1018.2
20260507000036 1 181 8.0 14.5 0.00 0.08 0.08 90 1018.3
20260506235511 1 158 8.0 12.9 0.00 0.13 0.08 90 1018.3
20260506235012 1 190 8.0 14.5 0.00 0.13 0.08 88 1018.2
20260506234532 1 208 4.8 14.5 0.00 0.13 0.08 88 1018.1
20260506234011 1 172 6.4 14.5 0.00 0.13 0.08 87 1018.2
20260506233513 1 227 3.2 11.3 0.00 0.13 0.08 86 1018.1
20260506233033 1 218 4.8 12.9 0.00 0.13 0.08 85 1018.2
20260506232513 1 202 3.2 12.9 0.00 0.13 0.08 85 1018.1
20260506232012 1 234 3.2 14.5 0.00 0.13 0.08 85 1018.4
20260506231532 1 203 6.4 14.5 0.00 0.13 0.08 84 1018.2
20260506231012 1 234 4.8 14.5 0.00 0.13 0.08 86 1018.2
20260506230515 1 217 4.8 9.7 0.00 0.13 0.08 85 1018.2
20260506230031 1 215 4.8 8.0 0.00 0.13 0.08 86 1018.0
20260506225515 1 0 3.2 8.0 0.00 0.15 0.08 85 1018.0
20260506225011 1 292 1.6 8.0 0.00 0.15 0.08 86 1018.1
20260506224529 1 0 1.6 8.0 0.00 0.15 0.08 86 1018.1
20260506224015 0 0 1.6 8.0 0.00 0.15 0.08 86 1018.2
20260506223511 0 292 3.2 8.0 0.03 0.15 0.08 86 1018.3
20260506223027 0 0 0.0 8.0 0.03 0.15 0.08 87 1018.3
20260506222513 0 292 3.2 12.9 0.03 0.15 0.08 86 1018.4
20260506222018 0 331 3.2 12.9 0.03 0.15 0.08 87 1018.4
20260506221530 0 297 6.4 12.9 0.03 0.15 0.08 87 1018.5
20260506221021 0 311 3.2 14.5 0.03 0.15 0.08 87 1018.6
20260506220512 0 334 4.8 14.5 0.05 0.15 0.08 88 1018.5
20260506220030 0 319 4.8 16.1 0.05 0.15 0.08 88 1018.5
20260506215516 0 5 8.0 16.1 0.05 0.18 0.08 89 1018.5
20260506215010 0 30 6.4 16.1 0.05 0.18 0.08 89 1018.5
20260506214531 0 32 8.0 16.1 0.05 0.18 0.08 89 1018.5
20260506214014 0 19 9.7 17.7 0.05 0.18 0.08 89 1018.6
20260506213511 0 346 8.0 17.7 0.03 0.15 0.05 89 1018.7
20260506213030 0 360 8.0 16.1 0.03 0.15 0.05 90 1018.7
20260506212514 -1 320 6.4 14.5 0.03 0.15 0.05 89 1018.9
20260506212013 -1 360 3.2 14.5 0.03 0.15 0.05 89 1018.9
20260506211534 0 17 4.8 14.5 0.03 0.15 0.05 89 1019.0
20260506211013 0 348 9.7 14.5 0.03 0.15 0.05 89 1019.0
20260506210517 0 15 6.4 14.5 0.00 0.13 0.03 92 1018.9
20260506210031 -1 347 8.0 16.1 0.00 0.13 0.03 91 1018.8
20260506205515 -1 41 9.7 16.1 0.00 0.13 0.03 90 1018.9
20260506205012 -1 24 9.7 19.3 0.00 0.13 0.03 90 1018.8
20260506204531 -1 11 12.9 19.3 0.00 0.13 0.03 91 1018.9
20260506204011 -1 5 14.5 20.9 0.00 0.13 0.03 91 1019.0
20260506203518 -1 10 11.3 20.9 0.00 0.13 0.03 92 1019.0
20260506203030 -1 34 14.5 22.5 0.00 0.13 0.03 91 1018.9
20260506202512 -1 43 14.5 22.5 0.00 0.13 0.03 92 1019.0
20260506202011 -1 24 19.3 22.5 0.00 0.13 0.03 91 1018.9
20260506201531 -1 14 17.7 22.5 0.00 0.13 0.03 92 1019.0
20260506201013 -1 31 16.1 22.5 0.00 0.13 0.03 91 1018.9
20260506200517 -1 28 17.7 22.5 0.00 0.13 0.03 91 1018.9
20260506200030 -1 41 14.5 22.5 0.00 0.13 0.03 91 1018.8
20260506195512 -1 36 16.1 22.5 0.00 0.15 0.03 91 1018.8
20260506195011 -1 21 12.9 20.9 0.00 0.15 0.03 92 1018.8
20260506194530 -1 5 14.5 20.9 0.00 0.15 0.03 92 1018.8
20260506194013 -1 5 14.5 20.9 0.00 0.15 0.03 91 1018.8
20260506193511 -1 15 14.5 20.9 0.00 0.15 0.03 92 1018.7
20260506193033 -1 360 14.5 22.5 0.00 0.15 0.03 92 1018.8
20260506192514 -1 17 16.1 24.1 0.00 0.15 0.03 91 1018.7
20260506192013 -1 9 16.1 24.1 0.00 0.15 0.03 92 1018.7
20260506191531 -1 22 17.7 25.7 0.00 0.15 0.03 91 1018.8
20260506191012 -1 5 17.7 25.7 0.00 0.15 0.03 92 1018.7
20260506190511 -1 360 14.5 20.9 0.00 0.15 0.03 92 1018.7
20260506190030 -1 9 14.5 20.9 0.00 0.15 0.03 91 1018.6
20260506185511 -1 15 14.5 20.9 0.00 0.20 0.03 92 1018.7
20260506185011 -1 17 14.5 20.9 0.00 0.20 0.03 93 1018.7
20260506184530 -1 344 14.5 20.9 0.00 0.20 0.03 92 1018.8
20260506184012 -1 352 14.5 19.3 0.00 0.20 0.03 92 1018.8
20260506183514 -1 12 14.5 19.3 0.00 0.20 0.03 92 1018.8
20260506183030 -1 355 14.5 19.3 0.00 0.20 0.03 92 1018.8
20260506182513 -1 360 14.5 20.9 0.00 0.20 0.03 92 1018.9
20260506182014 -1 360 16.1 20.9 0.00 0.20 0.03 92 1018.9
20260506181531 -1 355 14.5 20.9 0.00 0.20 0.03 93 1018.8
20260506181015 -1 350 12.9 17.7 0.00 0.20 0.03 93 1018.8